Regional Weather Roundup
Issued by NWS Pendleton, OR

Home | Current Version | Previous Version | Text Only | Print | Product List | Glossary On
Versions: 1 2 3 4 5 6 7 8 9 10 11 12 13 14 15 16 17 18 19 20 21 22 23 24 25 26 27 28 29 30 31 32 33 34 35 36 37 38 39 40 41 42 43 44 45 46 47 48 49 50
000
ASUS46 KPDT 031404
RWRPDT
PENDLETON REGIONAL WEATHER ROUNDUP
NATIONAL WEATHER SERVICE PENDLETON OREGON
700 AM PDT MON AUG 3 2015

NOTE: FAIR INDICATES FEW OR NO CLOUDS BELOW 12,000 FEET WITH NO
SIGNIFICANT WEATHER AND/OR OBSTRUCTIONS TO VISIBILITY.

# INDICATES UNOFFICIAL STATION AND DATA

WAZ520-031510-
EAST SLOPES OF WASHINGTON CASCADES

CITY            SKY/WX      TMP DP  RH  WIND    PRES   REMARKS
#BULLFROG       N/A         70  49  47  W7      N/A
#BULLFROG 2SW   N/A         67  47  49  CALM    27.51R
#BUMPING DAM    N/A         58  N/A N/A CALM    N/A
#CLE ELUM HS    N/A         70  47  44  W6      29.83R
#CLE ELUM LAKE  N/A         66  45  47  CALM    29.72R
#CLIFFDEL 2NW   N/A         62  43  50  N1      N/A
#EASTON DOT     N/A         67  48  50  N2      N/A
#ELK HTS DOT    N/A         72  72  100 SW6     N/A
#GLENWOOD       N/A         55  51  86  CALM    29.79S
#MANASTASH CYN  N/A         66  36  33  CALM    29.87S
#NELSON         N/A         69  50  51  CALM    29.76S
#NELSON 3SW     N/A         68  43  40  CALM    29.91S
#NILE           N/A         67  47  49  CALM    29.05S
#PEOH POINT     N/A         62  44  52  S6      N/A
#RONALD 2NW     N/A         67  45  45  N1      29.80S
#SNOWDEN        N/A         65  36  34  N1      N/A
#TEANAWAY 4NE   N/A         63  45  52  W2      N/A
#TROUT LAKE 1NE N/A         67  50  54  CALM    29.78R
$$

WAZ521-031510-
SIMCOE HIGHLANDS

CITY            SKY/WX      TMP DP  RH  WIND    PRES   REMARKS
#BICKLETON HS   N/A         72  31  22  N3      N/A
#SATUS PASS DOT N/A         65  40  40  E1      N/A
#CENTERVILLE 4W N/A         72  49  44  CALM    29.61S
#CENTERVILLE 1SWN/A         72  50  46  W13     29.72S
#GOLDENDALE     N/A         67  51  56  W3      N/A
#GOLDENDALE 1NE N/A         65  39  38  CALM    N/A
#GOLDENDALE 5WNWN/A         69  51  53  W3      29.74R
#GOODNOE HILLS  N/A         75  53  46  NW12    N/A
#LYLE 6NE       N/A         71  50  47  SW8     29.74F
$$

WAZ026-031510-
KITTITAS VALLEY

CITY            SKY/WX      TMP DP  RH  WIND    PRES   REMARKS
ELLENSBURG AP   PTCLDY      75  46  36  NW18    29.82S
YTC-OPS AREA    N/A         69  38  32  W29G35  29.84R
#ELLENSBURG CWU N/A         72  47  41  NW10    29.67S
#ELLENSBURG 3NE N/A         72  48  43  N8      29.83R
#ELLENSBURG 1E  N/A         72  44  37  CALM    N/A
#KITTITAS 3S    N/A         63  53  70  CALM    29.72R
#MANASTASH RDG  N/A         69  69  100 NW7     N/A
#ROCKY CYN DOT  N/A         71  51  49  NW12    N/A
#RYEGRASS DOT   N/A         67  46  47  W13     N/A
#THORP 6N       N/A         69  46  44  NW15    29.73S
$$

WAZ027-031510-
YAKIMA VALLEY

CITY            SKY/WX      TMP DP  RH  WIND    PRES   REMARKS
SUNNYSIDE AP    MOCLDY      61  55  81  CALM    29.78R
#DONALD 2NE     N/A         78   8   7  SW1     28.64R
#GRANDVIEW      N/A         66  53  63  CALM    29.74R
#MABTON         N/A         66  53  63  CALM    29.76R
#MOXEE 2E       N/A         70  39  32  CALM    29.75F
#NACHES 2SW     N/A         75  48  38  W9      29.82S
#PARKER DOT     N/A         77  41  28  E5      N/A
#SELAH 8E       N/A         64  36  35  SE6     N/A
#TERRACE HTS    N/A         77  39  25  NW2     29.67S
#TOPPENISH      N/A         76  46  34  NW6     29.65R
#I82 S UMTANUM RN/A         69  41  36  NE7     N/A
#UNION GAP DOT  N/A         73  44  35  N1      N/A
#WAPATO 4NE     N/A         78   8   7  SW1     28.64R
#WEST VALLEY    N/A         76  49  39  CALM    29.69R
#W YAKIMA       N/A         77  44  31  N2      29.71R
#WHITE SWAN 5E  N/A         62  51  67  CALM    29.72S
#ZILLAH DOT     N/A         68  50  53  CALM    N/A
$$

WAZ028-031510-
LOWER COLUMBIA BASIN...WASHINGTON

CITY            SKY/WX      TMP DP  RH  WIND    PRES   REMARKS
PASCO           MOCLDY      67  57  70  N6      29.75S
RICHLAND AWOS   MOCLDY      68  55  63  CALM    29.75R
#BASIN CITY 5SW N/A         63  54  72  NE2     29.75R
#BENTON CITY    N/A         73  50  44  N1      29.63R
#CONNELL 5N     N/A         63  44  50  CALM    29.70S
#CONNELL 5NW    N/A         63  46  54  CALM    29.67S
#ELTOPIA 6NW    N/A         67  53  61  CALM    28.74S
#KAHLOTUS       N/A         71  43  36  W2      29.70S
#KENNEWICK      N/A         67  47  49  CALM    27.51R
#KENNEWICK 3S   N/A         74  50  43  S3      29.70S
#PASCO-BROADMOORN/A         68  57  68  CALM    29.63R
#PATERSON       N/A         70  54  57  N1      29.72S
#PROSSER DOT    N/A         67  52  59  CALM    N/A
#PROSSER        N/A         72  51  48  CALM    29.71R
#SAGEMOOR 2W    N/A         68  54  61  CALM    29.57R
#TOUCHET 2S     N/A         64  49  58  CALM    29.70S
#WEST PASCO     N/A         70  55  59  CALM    29.69S
$$

WAZ029-031510-
FOOTHILLS OF THE BLUES...WASHINGTON

CITY            SKY/WX      TMP DP  RH  WIND    PRES   REMARKS
WALLA WALLA AP  PTCLDY      77  41  28  S7      29.80R
#DAYTON SCHOOL  N/A         65  35  33  NE2     29.82S
#LOWDEN 2SE     N/A         63  51  65  E3      29.73S
#PLEASANT VIEW 1N/A         71  41  34  SW7     29.72R
#PRESCOTT       N/A         56  48  74  CALM    29.73R
#SUDBURY        N/A         62  N/A N/A CALM    N/A
#WHITMAN COLLEGEN/A         74  44  34  SE1     29.76R
#WAITSBURG 8N   N/A         70  19  14  S5      29.65S
#WALLA WALLA U  N/A         72  47  41  CALM    29.72S
$$

WAZ030-031510-
BLUE MOUNTAINS...WASHINGTON

CITY            SKY/WX      TMP DP  RH  WIND    PRES   REMARKS
$$

ORZ009-041-WAZ024-031510-
COLUMBIA RIVER GORGE

CITY            SKY/WX      TMP DP  RH  WIND    PRES   REMARKS
HOOD RIVER AP   CLOUDY      72  54  53  SW9     29.85S
THE DALLES AP   CLOUDY      78  50  38  N10     29.79S
#ARLINGTON AIRPON/A         74  52  46  W12     N/A
#MARYHILL       N/A         76  49  39  CALM    N/A
#MOSIER 1S      N/A         72  41  33  W6      29.87S
#MURDOCK        N/A         77  56  48  W7      29.80S

$$

ORZ510-031510-
NORTH CENTRAL OREGON

CITY            SKY/WX      TMP DP  RH  WIND    PRES   REMARKS
#CHENOWITH 1W   N/A         69  49  49  W37     N/A
#DUFUR 9E       N/A         73  44  35  CALM    29.79R
#GRASS VALLEY 1SN/A         69  45  42  SW5     29.77S
#MAUPIN SCHOOL  N/A         73  47  40  CALM    29.85R
#MORO SCHOOL    N/A         74  51  44  W7      29.86S
#SHANIKO 4NW    N/A         70  33  25  W8      29.97R
#TYGH VALLEY 2NEN/A         68  45  44  CALM    29.76R
#WAPANITIA AIRPON/A         73  44  35  W5      29.76R
#WASCO 5NE      N/A         72  52  49  CALM    29.72S
$$

ORZ511-031510-
CENTRAL OREGON

CITY            SKY/WX      TMP DP  RH  WIND    PRES   REMARKS
BEND AIRPORT    CLOUDY      70  48  46  S7      29.99R
MADRAS AIRPORT  CLOUDY      68  43  40  E9      29.95R
PRINEVILLE AP   MOCLDY      68  45  44  CALM    29.97R
REDMOND AIRPORT MOCLDY      69  46  44  S7      29.96R
#BEND 1SW       N/A         67  50  54  CALM    N/A
#BEND-AWBREY    N/A         70  50  49  SE6     29.76R
#BEND-KIM LN    N/A         67  53  61  CALM    29.97R
#CULVER         N/A         69  46  44  NE1     29.89S
#LAKE BILLY CHINN/A         72  -3   5  CALM    29.97R
#POWELL BUTTE 3EN/A         70  44  39  S2      N/A
#POWELL BUTTE   N/A         72  42  34  W3      29.62R
#PRINEVILLE 3N  N/A         62  52  70  S1      29.74S
#WARM SPRINGS   N/A         68  45  44  CALM    29.86S

$$


ORZ509-031510-
EAST SLOPES OF OREGON CASCADES

CITY            SKY/WX      TMP DP  RH  WIND    PRES   REMARKS
#CAMP SHERMAN   N/A         64  53  67  CALM    29.76S
#LA PINE 4NW    N/A         58  54  87  CALM    29.82R
#SISTERS AIRPOR N/A         68  53  59  CALM    30.17S
#SISTERS 3N     N/A         68  44  42  CALM    30.16R
#SUNRIVER       N/A         64  53  67  CALM    29.68R

$$

ORZ044-031510-
LOWER COLUMBIA BASIN...OREGON

CITY            SKY/WX      TMP DP  RH  WIND    PRES   REMARKS
HERMISTON       MOCLDY      73  47  40  SE6     29.77S HAZE
#BOARDMAN SCHOOLN/A         68  56  65  N2      29.76S
#BOARDMAN 8SW   N/A         71  56  59  SW6     29.72F
#ECHO 8SW       N/A         78  48  35  SW5     29.78R
#IONE SCHOOL    N/A         74  44  34  S3      29.78S
#IRRIGON 4NW    N/A         68  57  68  SE1     N/A
#UMATILLA       N/A         66  50  56  CALM    29.68S
$$

ORZ507-031510-
NORTHERN FOOTHILLS OF THE BLUES

CITY            SKY/WX      TMP DP  RH  WIND    PRES   REMARKS
PENDLETON AIRPT MOCLDY      69  38  32  SE7     29.82R
#ADAMS 3WNW     N/A         62  38  41  CALM    29.73S
#ATHENA         N/A         67  43  42  CALM    29.75S
#CAYUSE         N/A         71  43  36  E7      29.72R
#HELIX SCHOOL   N/A         61  41  48  CALM    29.73R
#HELIX 3N       N/A         70  39  32  S5      29.81S
#HELIX 6SW      N/A         65  41  41  CALM    29.83R
#HOLDMAN 6E     N/A         72  41  33  NE5     29.54S
#M-F GROVE ELEM N/A         73  38  28  CALM    29.79R
#M-FREEWATER 5SEN/A         71  44  38  NE1     29.81S
#PENDLETON DNTN N/A         63  35  35  CALM    N/A
#PDT AQUATIC CTRN/A         63  36  36  CALM    29.80S
#PDT SUNRIDGE   N/A         62  42  48  CALM    29.83R
#PENDLETON 7NW  N/A         65  42  43  CALM    31.96S
#PILOT ROCK     N/A         72  41  33  CALM    29.87R
#TUTUILLA       N/A         63  46  54  CALM    29.78R
#UMAPINE 2E     N/A         67  54  63  CALM    29.74S
#WESTON SCHOOL  N/A         76  39  26  W3      29.72R

$$

ORZ508-031510-
SOUTHERN FOOTHILLS OF THE BLUES

CITY            SKY/WX      TMP DP  RH  WIND    PRES   REMARKS
#AJAX           N/A         75  34  22  SW10    29.81F
#CONDON SCHOOL  N/A         72  38  29  SW6     29.88R
#CONDON 5W      N/A         72  34  25  W17G24  29.88F
#FOSSIL SCHOOL  N/A         67  39  36  CALM    29.86S
#HEPPNER EOC    N/A         71  43  36  E5      29.67S
#HEPPNER 4NE    N/A         73  38  28  SW2     29.72R
#LEXINGTON 2SE  N/A         71  46  41  SE7     29.80R
#OLEX 4N        N/A         74  50  43  W13     29.79F
#RUGGS 5NE      N/A         72  34  25  S7      30.07S
#RUGGS 2SW      N/A         74  39  28  SW6     29.74R

$$

ORZ502-503-031510-
BLUE MOUNTAINS

CITY            SKY/WX      TMP DP  RH  WIND    PRES   REMARKS
MEACHAM         MOCLDY      53  41  64  CALM    29.96R
#HEPPNER 15SE   N/A         67  41  39  CALM    29.89R
#LONG CREEK HS  N/A         60  37  42  CALM    29.93R
#PIKES PEAK     N/A         72  38  29  S16     27.99S
#TOLLGATE       N/A         61  39  44  W1      29.89R
#TROY SCHOOL    N/A         62  44  52  CALM    29.59S
#UKIAH          N/A         56  41  57  CALM    29.81S
$$

ORZ505-031510-
JOHN DAY BASIN

CITY            SKY/WX      TMP DP  RH  WIND    PRES   REMARKS
JOHN DAY        MOCLDY      72  38  29  SW5     29.97R
#JOHN DAY KJDY  N/A         66  66  100 CALM    30.02F
#DAYVILLE SCHOOLN/A         74  36  25  CALM    29.88S
#MITCHELL       N/A         68  47  47  CALM    30.11R
#MONUMENT HS    N/A         68  43  40  CALM    29.89S
#MT. VERNON 5SE N/A         68  39  35  CALM    29.95R
#WINLOCK        N/A         69  37  31  CALM    30.03R
$$

ORZ506-031510-
OCHOCO AND JOHN DAY HIGHLANDS

CITY            SKY/WX      TMP DP  RH  WIND    PRES   REMARKS
#PINE MTN OBS   N/A         60  44  55  S5      N/A
#PRAIRIE CITY   N/A         61  47  60  E1      29.90R
#SENECA         N/A         63  N/A N/A CALM    N/A
#SENECA 9NW     N/A         66  40  38  CALM    29.68R
$$

ORZ049-031510-
GRANDE RONDE VALLEY

CITY            SKY/WX      TMP DP  RH  WIND    PRES   REMARKS
LA GRANDE       CLOUDY      75  36  24  NW14    29.88R
#COVE           N/A         65  45  48  E1      29.92R
#COVE SCHOOL    N/A         65  42  43  CALM    29.93R
#COVE 6NW       N/A         67  41  39  W1      29.75S
#ELGIN 3N       N/A         59  38  45  CALM    29.87R
#ELGIN 1E       N/A         58  41  53  CALM    N/A
#ISLAND CITY 4N N/A         61  57  87  CALM    29.91S
#UNION 1S       N/A         72  41  33  NE5     29.61R
$$

ORZ050-031510-
WALLOWA COUNTY

CITY            SKY/WX      TMP DP  RH  WIND    PRES   REMARKS
#ENTERPRISE HS  N/A         56  44  64  CALM    29.95R
#IMNAHA SCHOOL  N/A         72  35  26  SW3     29.82S
#IMNAHA 10S     N/A         67  35  30  SW6     29.88S
#JOSEPH 3N      N/A         54  42  64  CALM    29.96S
#JOSEPH 3W      N/A         70  32  24  SW2     29.83S
#LOSTINE        N/A         58  44  60  CALM    29.53S
#MT HOWARD 8000 N/A         61  21  21  CALM    30.22F
#PROMISE 1S     N/A         64  37  37  CALM    29.85S
#WALLOWA SCHOOL N/A         56  43  62  CALM    29.88R



$$



USA.gov is the U.S. government's official web portal to all federal, state and local government web resources and services.